CW2235 Kristiansand NO current weather conditions

sailwx.info

Wind from 001 at 5 knots gusting 10

Air temperature 10.0° C
Dewpoint 9.4° C

Last reported at 2019-Oct-19 20:10 UTC.
Time now 2019-Oct-19 20:40 UTC

Location: N 58°05' E 008°01'.
View on Google Maps.

See reports from other nearby stations

  
Tides and Currents Weather Stations Pressure Air Temp Water Temp Dewpoint Dewpoint Depression Visibility Wind Speed Wind Dir Waves Ship Positions
date/time (UTC)wind fromknots sea level pressurealtimeterstation pressurevisibilityair tempwater tempwave heightnotes
2019-Oct-19 20:10 001 5 gusting 10 10.0
2019-Oct-19 20:05 003 6 gusting 11 10.6
2019-Oct-19 20:00 004 4 gusting 10 10.6
2019-Oct-19 19:55 018 5 gusting 7 10.6
2019-Oct-19 19:50 001 5 gusting 6 10.6
2019-Oct-19 19:45 005 4 gusting 6 10.6
2019-Oct-19 19:40 005 5 gusting 7 10.6
2019-Oct-19 19:35 004 4 gusting 6 10.6
2019-Oct-19 19:30 001 2 gusting 5 10.6
2019-Oct-19 19:25 10.6
2019-Oct-19 19:20 016 3 gusting 6 10.6
2019-Oct-19 19:15 001 3 gusting 6 10.6
2019-Oct-19 19:10 10.6
2019-Oct-19 19:05 006 2 gusting 4 10.6
2019-Oct-19 19:00 10.6
2019-Oct-19 18:55 10.6
2019-Oct-19 18:50 001 4 gusting 6 10.6
2019-Oct-19 18:45 10.6
2019-Oct-19 18:40 041 3 gusting 5 10.6
2019-Oct-19 18:35 014 2 gusting 4 10.6
2019-Oct-19 18:30 11.1
2019-Oct-19 18:25 116 1 gusting 6 10.6
2019-Oct-19 18:20 139 2 gusting 5 11.1
2019-Oct-19 18:15 137 4 gusting 6 11.1
2019-Oct-19 18:10 146 4 gusting 6 11.1
2019-Oct-19 18:05 151 4 gusting 6 11.1
2019-Oct-19 18:00 157 4 gusting 6 11.1
2019-Oct-19 17:55 147 3 gusting 6 11.1
2019-Oct-19 17:50 156 3 gusting 6 11.1
2019-Oct-19 17:45 144 3 gusting 6 11.1
2019-Oct-19 17:40 080 4 gusting 6 11.1
2019-Oct-19 17:35 016 4 gusting 5 11.1
2019-Oct-19 17:30 137 5 gusting 7 11.1
2019-Oct-19 17:25 160 4 gusting 7 11.1
2019-Oct-19 17:20 070 6 gusting 10 11.7
2019-Oct-19 17:15 153 6 gusting 8 11.7
2019-Oct-19 17:10 122 6 gusting 8 11.7
2019-Oct-19 17:05 152 5 gusting 7 11.7
2019-Oct-19 17:00 148 4 gusting 7 11.7
2019-Oct-19 16:55 118 4 gusting 7 11.7
2019-Oct-19 16:50 140 4 gusting 5 11.7
2019-Oct-19 16:45 164 2 gusting 6 11.7
2019-Oct-19 16:40 153 2 gusting 6 11.7
2019-Oct-19 16:35 163 4 gusting 5 11.7
2019-Oct-19 16:30 002 3 gusting 5 11.7
2019-Oct-19 16:25 164 4 gusting 5 11.7
2019-Oct-19 16:20 008 5 gusting 6 11.7
2019-Oct-19 16:15 157 4 gusting 6 11.7
2019-Oct-19 16:10 082 4 gusting 6 11.7
2019-Oct-19 16:05 152 5 gusting 6 11.7
2019-Oct-19 16:00 158 5 gusting 6 11.7
2019-Oct-19 15:55 158 5 gusting 6 11.7
2019-Oct-19 15:50 148 4 gusting 6 11.7
2019-Oct-19 15:45 160 2 gusting 5 11.7
2019-Oct-19 15:40 155 2 gusting 5 11.7
2019-Oct-19 15:35 12.2
2019-Oct-19 15:30 12.2
2019-Oct-19 15:25 163 4 gusting 6 12.2
2019-Oct-19 15:20 161 4 gusting 5 12.2
2019-Oct-19 15:15 011 3 gusting 5 12.2
2019-Oct-19 15:10 165 4 gusting 5 12.2
2019-Oct-19 15:05 158 4 gusting 6 12.8
2019-Oct-19 15:00 164 3 gusting 6 12.8
2019-Oct-19 14:55 171 2 gusting 5 12.8
2019-Oct-19 14:50 165 4 gusting 5 12.8
2019-Oct-19 14:45 163 4 gusting 6 12.8
2019-Oct-19 14:40 004 4 gusting 6 12.8
2019-Oct-19 14:35 103 4 gusting 6 12.8
2019-Oct-19 14:30 012 3 gusting 6 12.8
2019-Oct-19 14:25 353 4 gusting 6 12.8
2019-Oct-19 14:20 165 4 gusting 6 12.8
2019-Oct-19 14:15 167 3 gusting 5 12.8
2019-Oct-19 14:10 007 4 gusting 6 12.8
2019-Oct-19 14:05 164 4 gusting 6 12.8
2019-Oct-19 14:00 001 5 gusting 6 12.8
2019-Oct-19 13:55 358 2 gusting 6 12.8
2019-Oct-19 13:50 002 2 gusting 5 13.3
2019-Oct-19 13:45 13.3
2019-Oct-19 13:40 13.3
2019-Oct-19 13:35 13.3
2019-Oct-19 13:30 13.3
2019-Oct-19 13:25 265 2 gusting 6 13.3
2019-Oct-19 13:20 356 1 gusting 6 13.3
2019-Oct-19 13:15 319 5 gusting 8 13.3
2019-Oct-19 13:10 243 2 gusting 7 13.3
2019-Oct-19 13:05 339 6 gusting 10 13.3
2019-Oct-19 13:00 352 5 gusting 8 13.3
2019-Oct-19 12:55 354 4 gusting 8 13.3
2019-Oct-19 12:50 338 4 gusting 8 13.3
2019-Oct-19 12:45 324 0 gusting 4 13.3
2019-Oct-19 12:40 266 4 gusting 6 13.3
2019-Oct-19 12:35 349 4 gusting 6 13.3
2019-Oct-19 12:30 357 4 gusting 8 13.3
2019-Oct-19 12:25 350 6 gusting 10 12.8
2019-Oct-19 12:20 339 6 gusting 10 13.3
2019-Oct-19 12:15 350 6 gusting 10 13.3
2019-Oct-19 12:10 355 6 gusting 10 13.3
2019-Oct-19 12:05 344 4 gusting 10 13.3
2019-Oct-19 12:00 353 2 gusting 5 13.3
2019-Oct-19 11:55 358 2 gusting 5 13.3
2019-Oct-19 11:50 13.3
2019-Oct-19 11:45 312 1 gusting 6 12.8
2019-Oct-19 11:40 354 2 gusting 7 12.8
2019-Oct-19 11:35 334 4 gusting 7 12.8
2019-Oct-19 11:30 268 2 gusting 7 12.8
2019-Oct-19 11:25 317 4 gusting 6 13.3
2019-Oct-19 11:20 310 4 gusting 8 13.3
2019-Oct-19 11:15 339 1 gusting 7 13.9
2019-Oct-19 11:10 263 1 gusting 8 13.3
2019-Oct-19 11:05 310 2 gusting 6 13.3
2019-Oct-19 11:00 329 6 gusting 8 13.3
2019-Oct-19 10:55 318 1 gusting 6 13.3
2019-Oct-19 10:50 337 1 gusting 6 13.3
2019-Oct-19 10:45 357 1 gusting 6 13.3
2019-Oct-19 10:40 271 1 gusting 7 13.3
2019-Oct-19 10:35 322 1 gusting 8 13.3
2019-Oct-19 10:30 279 2 gusting 8 13.3
2019-Oct-19 10:25 289 2 gusting 7 12.8
2019-Oct-19 10:20 303 1 gusting 8 12.8
2019-Oct-19 10:15 280 3 gusting 6 12.8
2019-Oct-19 10:10 325 1 gusting 6 12.2
2019-Oct-19 10:05 241 1 gusting 6 12.2
2019-Oct-19 10:00 256 2 gusting 6 12.2
2019-Oct-19 09:55 240 1 gusting 6 12.2
2019-Oct-19 09:50 256 3 gusting 8 12.2
2019-Oct-19 09:45 337 2 gusting 7 12.8
2019-Oct-19 09:40 324 4 gusting 8 12.8
2019-Oct-19 09:35 237 1 gusting 10 12.8
2019-Oct-19 09:30 290 4 gusting 10 12.8
2019-Oct-19 09:25 12.8
2019-Oct-19 09:20 332 6 gusting 11 12.8
2019-Oct-19 09:15 358 4 gusting 10 12.8
2019-Oct-19 09:10 294 5 gusting 8 12.8
2019-Oct-19 09:05 338 0 gusting 6 12.8
2019-Oct-19 09:00 277 5 gusting 13 12.8
2019-Oct-19 08:55 317 6 gusting 11 12.8
2019-Oct-19 08:50 284 5 gusting 10 12.2
2019-Oct-19 08:45 260 2 gusting 10 12.2
2019-Oct-19 08:40 275 5 gusting 11 12.2
2019-Oct-19 08:35 291 3 gusting 8 12.2
2019-Oct-19 08:30 327 4 gusting 10 12.2
2019-Oct-19 08:25 353 4 gusting 11 12.2
2019-Oct-19 08:20 311 5 gusting 11 11.7
2019-Oct-19 08:15 311 6 gusting 13 11.7
2019-Oct-19 08:10 293 6 gusting 13 11.7
2019-Oct-19 08:05 302 6 gusting 12 11.7
2019-Oct-19 08:00 313 6 gusting 11 11.7
2019-Oct-19 07:55 333 6 gusting 11 11.7
2019-Oct-19 07:50 264 4 gusting 8 11.7
2019-Oct-19 07:45 273 3 gusting 10 11.1
2019-Oct-19 07:40 267 4 gusting 13 11.1
2019-Oct-19 07:35 268 3 gusting 7 11.1
2019-Oct-19 07:30 256 2 gusting 5 10.6
2019-Oct-19 07:25 266 1 gusting 6 10.6
2019-Oct-19 07:20 284 0 gusting 6 10.6
2019-Oct-19 07:15 267 2 gusting 6 10.0
2019-Oct-19 07:10 10.0
2019-Oct-19 07:05 243 1 gusting 10 9.4
2019-Oct-19 07:00 273 3 gusting 7 9.4
2019-Oct-19 06:55 331 5 gusting 8 9.4
2019-Oct-19 06:50 293 1 gusting 2 9.4
2019-Oct-19 06:45 262 9.4
2019-Oct-19 06:40 284 0 gusting 4 9.4
2019-Oct-19 06:35 267 1 gusting 4 8.9
2019-Oct-19 06:30 248 0 gusting 4 8.9
2019-Oct-19 06:25 300 1 gusting 6 8.9
2019-Oct-19 06:20 8.9
2019-Oct-19 06:15 329 7 gusting 10 8.9
2019-Oct-19 06:10 302 1 gusting 7 8.9
2019-Oct-19 06:05 312 2 gusting 7 8.9
2019-Oct-19 06:00 227 8.3
2019-Oct-19 05:55 278 8.3
2019-Oct-19 05:50 322 8.3
2019-Oct-19 05:45 322 8.3
2019-Oct-19 05:40 322 8.3
2019-Oct-19 05:35 322 8.3
2019-Oct-19 05:30 322 8.3
2019-Oct-19 05:25 322 8.3
2019-Oct-19 05:20 322 8.3
2019-Oct-19 05:15 322 8.3
2019-Oct-19 05:10 322 8.3
2019-Oct-19 05:05 322 8.3
2019-Oct-19 05:00 322 8.3
2019-Oct-19 04:55 322 8.3
2019-Oct-19 04:50 322 8.3
2019-Oct-19 04:45 322 8.3
2019-Oct-19 04:40 323 1 gusting 2 8.3
2019-Oct-19 04:35 312 1 gusting 2 8.3
2019-Oct-19 04:30 318 1 gusting 4 8.3
2019-Oct-19 04:25 316 1 gusting 4 8.3
2019-Oct-19 04:20 323 1 gusting 2 8.3
2019-Oct-19 04:15 319 1 gusting 5 8.3
2019-Oct-19 04:10 331 2 gusting 4 8.3
2019-Oct-19 04:05 319 1 gusting 2 8.3
2019-Oct-19 04:00 321 8.3
2019-Oct-19 03:55 321 8.3
2019-Oct-19 03:50 321 8.3
2019-Oct-19 03:45 321 8.3
2019-Oct-19 03:40 321 8.3
2019-Oct-19 03:35 321 8.3
2019-Oct-19 03:30 321 8.3
2019-Oct-19 03:25 322 0 gusting 2 8.3
2019-Oct-19 03:20 322 0 gusting 1 8.3
2019-Oct-19 03:15 323 0 gusting 2 8.3
2019-Oct-19 03:10 323 2 gusting 2 8.3
2019-Oct-19 03:05 327 2 gusting 2 8.3
2019-Oct-19 03:00 325 1 gusting 2 8.3
2019-Oct-19 02:55 325 0 gusting 2 8.3
2019-Oct-19 02:50 325 1 gusting 2 8.9
2019-Oct-19 02:45 327 2 gusting 2 8.3
2019-Oct-19 02:40 325 1 gusting 4 8.3
2019-Oct-19 02:35 325 2 gusting 5 8.3
2019-Oct-19 02:30 324 3 gusting 4 8.9
2019-Oct-19 02:25 314 1 gusting 2 8.9
2019-Oct-19 02:20 317 1 gusting 2 8.9
2019-Oct-19 02:15 319 1 gusting 4 8.9
2019-Oct-19 02:10 334 1 gusting 2 8.9
2019-Oct-19 02:05 335 2 gusting 4 8.9
2019-Oct-19 02:00 337 4 gusting 5 8.9
2019-Oct-19 01:55 8.9
2019-Oct-19 01:50 003 1 gusting 4 8.9
2019-Oct-19 01:45 005 1 gusting 4 8.9
2019-Oct-19 01:40 005 4 gusting 6 8.9
2019-Oct-19 01:35 005 0 gusting 5 8.9
2019-Oct-19 01:30 004 4 gusting 6 8.9
2019-Oct-19 01:25 001 4 gusting 7 8.9
2019-Oct-19 01:20 003 6 gusting 7 8.9
2019-Oct-19 01:15 9.4
2019-Oct-19 01:10 001 5 gusting 6 9.4
2019-Oct-19 01:05 9.4
2019-Oct-19 01:00 004 6 gusting 7 9.4
2019-Oct-19 00:55 003 6 gusting 7 9.4
2019-Oct-19 00:50 002 5 gusting 7 9.4
2019-Oct-19 00:45 005 5 gusting 7 9.4
2019-Oct-19 00:40 9.4
2019-Oct-19 00:35 358 4 gusting 6 9.4
2019-Oct-19 00:30 350 5 gusting 6 9.4
2019-Oct-19 00:25 352 5 gusting 7 9.4
2019-Oct-19 00:20 355 5 gusting 8 9.4
2019-Oct-19 00:15 354 4 gusting 7 9.4
2019-Oct-19 00:10 357 4 gusting 6 9.4
2019-Oct-19 00:05 355 3 gusting 6 9.4
2019-Oct-19 00:00 350 4 gusting 7 9.4
2019-Oct-18 23:55 352 4 gusting 7 9.4
2019-Oct-18 23:50 353 5 gusting 8 9.4
2019-Oct-18 23:45 352 5 gusting 10 9.4
2019-Oct-18 23:40 352 5 gusting 8 9.4
2019-Oct-18 23:35 356 5 gusting 12 9.4
2019-Oct-18 23:30 345 6 gusting 11 9.4
2019-Oct-18 23:25 354 7 gusting 10 9.4
2019-Oct-18 23:20 354 7 gusting 12 9.4
2019-Oct-18 23:15 354 6 gusting 11 9.4
2019-Oct-18 23:10 349 8 gusting 13 9.4
2019-Oct-18 23:05 357 6 gusting 10 10.0
2019-Oct-18 23:00 354 6 gusting 10 10.0
2019-Oct-18 22:55 356 6 gusting 10 10.0
2019-Oct-18 22:50 352 6 gusting 10 10.0
2019-Oct-18 22:45 352 5 gusting 7 10.0
2019-Oct-18 22:40 001 4 gusting 10 10.0
2019-Oct-18 22:35 002 5 gusting 7 10.0
2019-Oct-18 22:30 012 6 gusting 10 10.0
2019-Oct-18 22:25 018 4 gusting 7 10.0
2019-Oct-18 22:20 001 4 gusting 6 10.0
2019-Oct-18 22:15 033 5 gusting 6 10.0
2019-Oct-18 22:10 084 2 gusting 4 10.0
2019-Oct-18 22:05 096 5 gusting 8 10.0
2019-Oct-18 22:00 152 0 gusting 2 10.0
2019-Oct-18 21:55 212 4 gusting 7 10.0
2019-Oct-18 21:50 224 2 gusting 4 9.4
2019-Oct-18 21:45 119 9.4
2019-Oct-18 21:40 005 5 gusting 10 9.4
2019-Oct-18 21:35 002 6 gusting 12 9.4
2019-Oct-18 21:30 007 7 gusting 13 10.0
2019-Oct-18 21:25 10.0
2019-Oct-18 21:20 014 9 gusting 14 10.0
2019-Oct-18 21:15 003 8 gusting 12 10.0
2019-Oct-18 21:10 008 10 gusting 17 10.0
2019-Oct-18 21:05 003 10 gusting 15 10.0
2019-Oct-18 21:00 003 12 gusting 18 10.0
2019-Oct-18 20:55 10.0
2019-Oct-18 20:50 003 13 gusting 17 10.0
2019-Oct-18 20:45 10.0
2019-Oct-18 20:40 002 13 gusting 19 10.0
2019-Oct-18 20:35 001 13 gusting 19 10.0
2019-Oct-18 20:30 001 12 gusting 19 10.0
2019-Oct-18 20:25 003 13 gusting 19 10.0
2019-Oct-18 20:20 006 13 gusting 20 10.0
2019-Oct-18 20:15 003 14 gusting 19 10.0
2019-Oct-18 20:10 009 12 gusting 17 10.0
2019-Oct-18 20:05 002 14 gusting 21 10.0
2019-Oct-18 20:00 10.6
2019-Oct-18 19:55 003 13 gusting 20 10.6
2019-Oct-18 19:50 011 12 gusting 19 10.6
2019-Oct-18 19:45 001 12 gusting 18 10.6
2019-Oct-18 19:40 005 11 gusting 21 10.6
2019-Oct-18 19:35 007 11 gusting 18 10.6
2019-Oct-18 19:30 003 12 gusting 18 10.6
2019-Oct-18 19:25 004 10 gusting 17 10.6
2019-Oct-18 19:20 007 12 gusting 19 10.6
2019-Oct-18 19:15 020 14 gusting 21 10.6
2019-Oct-18 19:10 007 13 gusting 19 10.6
2019-Oct-18 19:05 008 13 gusting 21 10.6
2019-Oct-18 19:00 008 17 gusting 22 10.6
2019-Oct-18 18:55 002 16 gusting 22 10.6
2019-Oct-18 18:50 002 14 gusting 20 10.6
2019-Oct-18 18:45 017 12 gusting 21 10.6
2019-Oct-18 18:40 009 16 gusting 21 10.6
2019-Oct-18 18:35 015 13 gusting 21 10.6
2019-Oct-18 18:30 017 13 gusting 22 10.6
2019-Oct-18 18:25 012 13 gusting 20 10.6
2019-Oct-18 18:20 010 12 gusting 21 10.6
2019-Oct-18 18:15 012 14 gusting 22 10.6
2019-Oct-18 18:10 001 14 gusting 19 10.6
2019-Oct-18 18:05 007 13 gusting 20 10.6
2019-Oct-18 18:00 023 12 gusting 21 10.6
2019-Oct-18 17:55 017 13 gusting 21 10.6
2019-Oct-18 17:50 004 12 gusting 20 10.6
2019-Oct-18 17:45 014 15 gusting 22 10.6
2019-Oct-18 17:40 023 14 gusting 22 10.6
2019-Oct-18 17:35 009 12 gusting 19 10.6
2019-Oct-18 17:30 020 15 gusting 24 10.6
2019-Oct-18 17:25 021 11 gusting 22 10.6
2019-Oct-18 17:15 025 13 gusting 24 10.6
2019-Oct-18 17:10 064 13 gusting 22 10.6
2019-Oct-18 17:05 055 12 gusting 22 10.6
2019-Oct-18 17:00 078 10 gusting 19 10.6
2019-Oct-18 16:55 082 11 gusting 19 10.6
2019-Oct-18 16:50 045 13 gusting 21 10.6
2019-Oct-18 16:45 077 12 gusting 20 10.6
2019-Oct-18 16:40 088 13 gusting 22 10.6
2019-Oct-18 16:35 093 16 gusting 24 11.1
2019-Oct-18 16:30 095 17 gusting 24 11.1
2019-Oct-18 16:25 103 15 gusting 24 11.1
2019-Oct-18 16:20 090 14 gusting 22 11.1
2019-Oct-18 16:15 097 14 gusting 22 11.1
2019-Oct-18 16:10 098 13 gusting 21 11.1
2019-Oct-18 16:05 095 12 gusting 20 11.1
2019-Oct-18 16:00 103 11 gusting 18 11.1
2019-Oct-18 15:55 108 13 gusting 19 11.1
2019-Oct-18 15:50 104 12 gusting 19 11.1
2019-Oct-18 15:45 109 13 gusting 19 11.1
2019-Oct-18 15:40 098 12 gusting 20 11.1
2019-Oct-18 15:35 099 13 gusting 20 11.7
2019-Oct-18 15:30 116 11 gusting 19 11.7
2019-Oct-18 15:25 098 13 gusting 24 11.7
2019-Oct-18 15:20 069 14 gusting 21 11.7
2019-Oct-18 15:15 105 13 gusting 22 11.7
2019-Oct-18 15:10 109 13 gusting 19 11.7
2019-Oct-18 15:05 052 11 gusting 18 11.7
2019-Oct-18 15:00 108 13 gusting 17 11.7
2019-Oct-18 14:55 103 11 gusting 15 11.7
2019-Oct-18 14:50 081 11 gusting 19 11.7
2019-Oct-18 14:45 106 12 gusting 18 11.7
2019-Oct-18 14:40 107 10 gusting 17 11.7
2019-Oct-18 14:35 093 10 gusting 15 11.7
2019-Oct-18 14:30 096 9 gusting 14 11.7
2019-Oct-18 14:25 116 9 gusting 15 11.7
2019-Oct-18 14:20 110 10 gusting 13 11.7
2019-Oct-18 14:15 102 10 gusting 15 11.7
2019-Oct-18 14:10 096 10 gusting 14 11.7
2019-Oct-18 14:05 105 8 gusting 13 11.7
2019-Oct-18 14:00 118 9 gusting 13 11.7
2019-Oct-18 13:55 118 7 gusting 13 11.7
2019-Oct-18 13:50 106 9 gusting 14 11.7
2019-Oct-18 13:45 108 7 gusting 11 11.7
2019-Oct-18 13:40 109 7 gusting 13 11.7
2019-Oct-18 13:35 095 7 gusting 13 11.7
2019-Oct-18 13:30 105 6 gusting 11 11.7
2019-Oct-18 13:25 092 6 gusting 10 11.7
2019-Oct-18 13:20 126 7 gusting 10 11.7
2019-Oct-18 13:15 117 6 gusting 10 11.7
2019-Oct-18 13:10 112 7 gusting 11 11.7
2019-Oct-18 13:05 118 7 gusting 11 11.7
2019-Oct-18 13:00 131 8 gusting 13 11.7
2019-Oct-18 12:55 119 9 gusting 12 11.7
2019-Oct-18 12:50 126 7 gusting 11 11.7
2019-Oct-18 12:45 144 6 gusting 14 11.7
2019-Oct-18 12:40 128 8 gusting 12 11.7
2019-Oct-18 12:35 138 6 gusting 12 11.7
2019-Oct-18 12:30 141 6 gusting 11 11.7
2019-Oct-18 12:25 138 7 gusting 11 11.7
2019-Oct-18 12:20 132 6 gusting 11 11.7
2019-Oct-18 12:15 122 8 gusting 13 11.7
2019-Oct-18 12:10 113 9 gusting 13 11.7
2019-Oct-18 12:05 143 6 gusting 12 11.7
2019-Oct-18 12:00 140 7 gusting 12 11.7
2019-Oct-18 11:55 134 6 gusting 13 11.7
2019-Oct-18 11:50 135 8 gusting 13 11.7
2019-Oct-18 11:45 142 6 gusting 13 11.7
2019-Oct-18 11:40 130 8 gusting 13 11.7
2019-Oct-18 11:35 148 6 gusting 11 11.7
2019-Oct-18 11:30 135 8 gusting 12 11.7
2019-Oct-18 11:25 133 6 gusting 13 11.7
2019-Oct-18 11:20 142 6 gusting 13 11.7
2019-Oct-18 11:15 135 7 gusting 11 11.7
2019-Oct-18 11:10 140 5 gusting 8 11.7
2019-Oct-18 11:05 131 5 gusting 8 11.7
2019-Oct-18 11:00 136 6 gusting 11 11.7
2019-Oct-18 10:55 141 8 gusting 13 11.7
2019-Oct-18 10:50 143 8 gusting 14 11.7
2019-Oct-18 10:45 130 8 gusting 13 11.7
2019-Oct-18 10:40 135 6 gusting 11 11.7
2019-Oct-18 10:35 133 5 gusting 7 11.7
2019-Oct-18 10:30 149 6 gusting 10 11.7
2019-Oct-18 10:25 141 6 gusting 8 11.7
2019-Oct-18 10:20 144 6 gusting 10 11.7
2019-Oct-18 10:15 147 7 gusting 12 11.7
2019-Oct-18 10:10 152 6 gusting 12 11.7
2019-Oct-18 10:05 136 6 gusting 10 11.7
2019-Oct-18 10:00 144 6 gusting 11 11.7
2019-Oct-18 09:55 137 6 gusting 13 11.7
2019-Oct-18 09:50 137 6 gusting 11 11.7
2019-Oct-18 09:45 150 6 gusting 12 11.7
2019-Oct-18 09:40 126 6 gusting 12 11.7
2019-Oct-18 09:35 126 6 gusting 10 11.7
2019-Oct-18 09:30 154 6 gusting 10 11.7
2019-Oct-18 09:25 155 5 gusting 7 11.7
2019-Oct-18 09:20 153 5 gusting 10 11.1
2019-Oct-18 09:15 144 5 gusting 10 11.1
2019-Oct-18 09:10 138 6 gusting 8 11.1
2019-Oct-18 09:05 130 5 gusting 7 10.6
2019-Oct-18 09:00 101 5 gusting 7 10.0
2019-Oct-18 08:55 092 4 gusting 10 10.0
2019-Oct-18 08:50 103 4 gusting 8 10.0
2019-Oct-18 08:45 10.0
2019-Oct-18 08:40 044 5 gusting 10 10.0
2019-Oct-18 08:35 017 5 gusting 10 10.0
2019-Oct-18 08:30 017 6 gusting 12 10.0
2019-Oct-18 08:25 025 6 gusting 10 10.0
2019-Oct-18 08:20 025 7 gusting 12 10.0
2019-Oct-18 08:15 012 7 gusting 12 10.0
2019-Oct-18 08:10 034 5 gusting 10 10.0
2019-Oct-18 08:05 055 5 gusting 12 10.0
2019-Oct-18 08:00 102 6 gusting 12 10.0
2019-Oct-18 07:55 071 6 gusting 11 10.0
2019-Oct-18 07:50 076 5 gusting 8 10.0
2019-Oct-18 07:45 091 6 gusting 13 9.4
2019-Oct-18 07:40 078 6 gusting 11 9.4
2019-Oct-18 07:35 092 6 gusting 11 9.4
2019-Oct-18 07:30 072 6 gusting 10 9.4
2019-Oct-18 07:25 052 5 gusting 12 9.4
2019-Oct-18 07:20 091 5 gusting 10 9.4
2019-Oct-18 07:15 063 5 gusting 10 9.4
2019-Oct-18 07:10 100 6 gusting 10 9.4
2019-Oct-18 07:05 027 6 gusting 10 9.4
2019-Oct-18 07:00 006 6 gusting 13 9.4
2019-Oct-18 06:55 026 8 gusting 13 9.4
2019-Oct-18 06:50 033 9 gusting 14 9.4
2019-Oct-18 06:45 021 8 gusting 13 9.4
2019-Oct-18 06:40 001 8 gusting 13 9.4
2019-Oct-18 06:35 018 7 gusting 12 9.4
2019-Oct-18 06:30 002 6 gusting 11 8.9
2019-Oct-18 06:25 020 7 gusting 11 8.9
2019-Oct-18 06:20 8.9
2019-Oct-18 06:15 004 6 gusting 11 8.9
2019-Oct-18 06:10 009 6 gusting 10 8.9
2019-Oct-18 06:05 8.9
2019-Oct-18 06:00 043 5 gusting 7 8.9
2019-Oct-18 05:55 002 6 gusting 8 8.9
2019-Oct-18 05:50 003 4 gusting 6 8.9
2019-Oct-18 05:45 003 3 gusting 6 8.3
2019-Oct-18 05:40 029 2 gusting 4 7.8
2019-Oct-18 05:35 7.8
2019-Oct-18 05:30 002 4 gusting 6 7.8
2019-Oct-18 05:25 005 4 gusting 5 7.2
2019-Oct-18 05:20 7.2
2019-Oct-18 05:15 355 5 gusting 6 7.2
2019-Oct-18 05:10 357 5 gusting 7 7.2
2019-Oct-18 05:05 358 6 gusting 10 7.2
2019-Oct-18 05:00 002 6 gusting 10 7.2
2019-Oct-18 04:55 002 5 gusting 10 7.2
2019-Oct-18 04:50 355 6 gusting 6 7.2
2019-Oct-18 04:45 341 5 gusting 7 7.2
2019-Oct-18 04:40 355 4 gusting 6 7.2
2019-Oct-18 04:35 355 5 gusting 8 7.2
2019-Oct-18 04:30 6.7
2019-Oct-18 04:25 001 4 gusting 7 6.7
2019-Oct-18 04:20 355 4 gusting 6 6.7
2019-Oct-18 04:15 001 5 gusting 7 6.7
2019-Oct-18 04:10 004 6 gusting 7 6.7
2019-Oct-18 04:05 359 4 gusting 7 6.7
2019-Oct-18 04:00 347 5 gusting 7 6.7
2019-Oct-18 03:55 357 5 gusting 6 6.7
2019-Oct-18 03:50 357 5 gusting 7 6.7
2019-Oct-18 03:45 358 4 gusting 7 6.7
2019-Oct-18 03:40 6.7
2019-Oct-18 03:35 357 4 gusting 6 6.7
2019-Oct-18 03:30 359 5 gusting 6 6.1
2019-Oct-18 03:25 001 5 gusting 7 6.1
2019-Oct-18 03:20 357 5 gusting 7 6.1
2019-Oct-18 03:15 003 6 gusting 7 6.1
2019-Oct-18 03:10 004 6 gusting 7 6.1
2019-Oct-18 03:05 002 6 gusting 7 6.1
2019-Oct-18 03:00 004 5 gusting 6 6.1
2019-Oct-18 02:55 002 5 gusting 6 6.1
2019-Oct-18 02:50 002 4 gusting 6 6.1
2019-Oct-18 02:45 6.1
2019-Oct-18 02:40 004 6 gusting 7 6.1
2019-Oct-18 02:35 6.1
2019-Oct-18 02:30 356 5 gusting 6 6.1
2019-Oct-18 02:25 005 4 gusting 6 6.7
2019-Oct-18 02:20 354 4 gusting 6 6.7
2019-Oct-18 02:15 358 4 gusting 6 6.1
2019-Oct-18 02:10 007 4 gusting 5 6.1
2019-Oct-18 02:05 005 4 gusting 5 6.1
2019-Oct-18 02:00 003 4 gusting 6 6.1
2019-Oct-18 01:55 6.1
2019-Oct-18 01:50 355 2 gusting 5 6.1
2019-Oct-18 01:45 001 3 gusting 5 6.1
2019-Oct-18 01:40 6.7
2019-Oct-18 01:35 6.7
2019-Oct-18 01:30 002 4 gusting 5 6.7
2019-Oct-18 01:25 002 3 gusting 5 6.7
2019-Oct-18 01:20 007 4 gusting 5 6.7
2019-Oct-18 01:15 005 4 gusting 5 6.7
2019-Oct-18 01:10 006 4 gusting 5 6.7
2019-Oct-18 01:05 004 5 gusting 6 6.7
2019-Oct-18 01:00 005 4 gusting 6 7.2
2019-Oct-18 00:55 002 3 gusting 5 7.2
2019-Oct-18 00:50 004 4 gusting 6 7.2
2019-Oct-18 00:45 005 2 gusting 5 7.2
2019-Oct-18 00:40 003 1 gusting 4 7.2
2019-Oct-18 00:35 7.2
2019-Oct-18 00:30 7.2
2019-Oct-18 00:25 005 1 gusting 2 7.2
2019-Oct-18 00:20 011 7.2
2019-Oct-18 00:15 011 0 gusting 1 7.2
2019-Oct-18 00:10 011 1 gusting 2 7.2
2019-Oct-18 00:05 004 0 gusting 2 7.2
2019-Oct-18 00:00 009 0 gusting 2 7.2
2019-Oct-17 23:55 005 1 gusting 2 7.8
2019-Oct-17 23:50 005 1 gusting 4 7.8
2019-Oct-17 23:45 7.8
2019-Oct-17 23:40 7.8
2019-Oct-17 23:35 7.8
2019-Oct-17 23:30 003 0 gusting 2 8.3
2019-Oct-17 23:25 321 1 gusting 1 8.3
2019-Oct-17 23:15 269 1 gusting 2 8.3
2019-Oct-17 23:05 269 8.9
2019-Oct-17 23:00 268 8.9
2019-Oct-17 22:55 268 8.9
2019-Oct-17 22:50 268 8.9
2019-Oct-17 22:45 268 8.9
2019-Oct-17 22:40 268 8.9
2019-Oct-17 22:35 268 0 gusting 2 9.4
2019-Oct-17 22:30 268 8.9
2019-Oct-17 22:25 268 8.9
2019-Oct-17 22:20 268 8.9
2019-Oct-17 22:15 268 8.9
2019-Oct-17 22:10 268 8.9
2019-Oct-17 22:05 268 0 gusting 1 9.4
2019-Oct-17 22:00 268 9.4
2019-Oct-17 21:55 268 9.4
2019-Oct-17 21:50 268 9.4
2019-Oct-17 21:45 268 9.4
2019-Oct-17 21:40 268 9.4
2019-Oct-17 21:35 268 9.4
2019-Oct-17 21:30 268 9.4
2019-Oct-17 21:25 269 9.4
2019-Oct-17 21:20 269 9.4
2019-Oct-17 21:15 269 9.4
2019-Oct-17 21:10 269 9.4
2019-Oct-17 21:05 269 9.4
2019-Oct-17 21:00 269 9.4
2019-Oct-17 20:55 269 9.4
2019-Oct-17 20:50 269 9.4
2019-Oct-17 20:45 269 9.4
2019-Oct-17 20:40 268 9.4
2019-Oct-17 20:35 268 9.4
2019-Oct-17 20:30 268 9.4
2019-Oct-17 20:25 269 9.4
2019-Oct-17 20:20 269 0 gusting 2 9.4
2019-Oct-17 20:15 267 0 gusting 1 9.4
2019-Oct-17 20:10 267 0 gusting 2 10.0
2019-Oct-17 20:05 267 10.0
2019-Oct-17 20:00 267 10.0